| time (UTC) | temp F | wind direction | speed MPH | gust MPH | rain 1hr in | rain 24hr in | rain mn in | humidity % | barometer mb |
| 20260905035818 | 78 | 184 | 0.0 | 0.0 | 0.00 | 0.00 | 0.00 | 75 | 1014.5 |
| 20260905035333 | 78 | 184 | 0.0 | 0.0 | 0.00 | 0.00 | 0.00 | 75 | 1014.4 |
| 20260905034846 | 79 | 184 | 0.0 | 0.0 | 0.00 | 0.00 | 0.00 | 75 | 1014.4 |
| 20260905034319 | 79 | 184 | 0.0 | 0.0 | 0.00 | 0.00 | 0.00 | 74 | 1014.5 |
| 20260905033814 | 79 | 185 | 0.0 | 0.0 | 0.00 | 0.00 | 0.00 | 76 | 1014.5 |
| 20260905033329 | 79 | 184 | 0.0 | 0.0 | 0.00 | 0.00 | 0.00 | 75 | 1014.5 |
| 20260905032843 | 79 | 184 | 0.0 | 0.0 | 0.00 | 0.00 | 0.00 | 74 | 1014.4 |
| 20260905032317 | 79 | 184 | 0.0 | 0.0 | 0.00 | 0.00 | 0.00 | 74 | 1014.4 |
| 20260905031812 | 79 | 184 | 0.0 | 0.0 | 0.00 | 0.00 | 0.00 | 72 | 1014.4 |
| 20260905031311 | 80 | 184 | 0.0 | 0.0 | 0.00 | 0.00 | 0.00 | 73 | 1014.4 |
| 20260905030825 | 80 | 185 | 0.0 | 0.0 | 0.00 | 0.00 | 0.00 | 74 | 1014.3 |
| 20260905030320 | 80 | 184 | 0.0 | 0.0 | 0.00 | 0.00 | 0.00 | 74 | 1014.3 |
| 20260905025815 | 79 | 185 | 0.0 | 0.0 | 0.00 | 0.00 | 0.00 | 72 | 1014.3 |
| 20260905025329 | 79 | 185 | 0.0 | 0.0 | 0.00 | 0.00 | 0.00 | 72 | 1014.3 |
| 20260905024823 | 80 | 184 | 0.0 | 0.0 | 0.00 | 0.00 | 0.00 | 73 | 1014.2 |
| 20260905024337 | 80 | 184 | 0.0 | 0.0 | 0.00 | 0.00 | 0.00 | 72 | 1014.1 |
| 20260905023811 | 80 | 184 | 0.0 | 0.0 | 0.00 | 0.00 | 0.00 | 72 | 1014.0 |
| 20260905023325 | 81 | 184 | 0.0 | 0.0 | 0.00 | 0.00 | 0.00 | 71 | 1013.9 |
| 20260905022824 | 81 | 184 | 0.0 | 0.0 | 0.00 | 0.00 | 0.00 | 70 | 1013.8 |
| 20260905022319 | 81 | 184 | 0.0 | 0.0 | 0.00 | 0.00 | 0.00 | 69 | 1013.7 |
| 20260905021814 | 81 | 184 | 0.0 | 0.0 | 0.00 | 0.00 | 0.00 | 69 | 1013.7 |
| 20260905021329 | 82 | 185 | 0.0 | 0.0 | 0.00 | 0.00 | 0.00 | 68 | 1013.7 |
| 20260905020823 | 82 | 184 | 0.0 | 0.0 | 0.00 | 0.00 | 0.00 | 68 | 1013.6 |
| 20260905020318 | 82 | 184 | 0.0 | 0.0 | 0.00 | 0.00 | 0.00 | 67 | 1013.5 |
| 20260905015832 | 82 | 185 | 0.0 | 0.0 | 0.00 | 0.00 | 0.00 | 66 | 1013.4 |
| 20260905015326 | 83 | 186 | 0.0 | 0.0 | 0.00 | 0.00 | 0.00 | 67 | 1013.3 |
| 20260905014821 | 83 | 185 | 0.0 | 0.0 | 0.00 | 0.00 | 0.00 | 64 | 1013.3 |
| 20260905014340 | 83 | 185 | 0.0 | 0.0 | 0.00 | 0.00 | 0.00 | 64 | 1013.2 |
| 20260905013814 | 84 | 185 | 0.0 | 0.0 | 0.00 | 0.00 | 0.00 | 63 | 1013.2 |
| 20260905013309 | 84 | 186 | 0.0 | 0.0 | 0.00 | 0.00 | 0.00 | 63 | 1013.1 |
| 20260905012844 | 84 | 185 | 0.0 | 0.0 | 0.00 | 0.00 | 0.00 | 63 | 1013.0 |
| 20260905012338 | 85 | 186 | 0.0 | 0.0 | 0.00 | 0.00 | 0.00 | 61 | 1013.0 |
| 20260905011811 | 85 | 186 | 0.0 | 0.0 | 0.00 | 0.00 | 0.00 | 61 | 1013.0 |
| 20260905011326 | 86 | 186 | 0.0 | 0.0 | 0.00 | 0.00 | 0.00 | 60 | 1012.9 |
| 20260905010841 | 86 | 186 | 0.0 | 0.0 | 0.00 | 0.00 | 0.00 | 58 | 1012.9 |
| 20260905010315 | 87 | 186 | 0.0 | 0.0 | 0.00 | 0.00 | 0.00 | 57 | 1012.9 |
| 20260905005814 | 87 | 186 | 0.0 | 0.0 | 0.00 | 0.00 | 0.00 | 57 | 1012.9 |
| 20260905005309 | 88 | 186 | 0.0 | 0.0 | 0.00 | 0.00 | 0.00 | 55 | 1012.9 |
| 20260905004845 | 88 | 186 | 0.0 | 0.0 | 0.00 | 0.00 | 0.00 | 54 | 1012.8 |
| 20260905004318 | 89 | 186 | 0.0 | 0.0 | 0.00 | 0.00 | 0.00 | 54 | 1012.8 |
| 20260905003813 | 90 | 186 | 0.0 | 0.0 | 0.00 | 0.00 | 0.00 | 52 | 1012.7 |
| 20260905003328 | 90 | 186 | 0.0 | 0.0 | 0.00 | 0.00 | 0.00 | 51 | 1012.8 |
| 20260905002821 | 91 | 186 | 0.0 | 0.0 | 0.00 | 0.00 | 0.00 | 50 | 1012.8 |
| 20260905002315 | 92 | 186 | 0.0 | 0.0 | 0.00 | 0.00 | 0.00 | 49 | 1012.8 |
| 20260905001830 | 93 | 186 | 0.0 | 0.0 | 0.00 | 0.00 | 0.00 | 48 | 1012.8 |
| 20260905001308 | 94 | 186 | 0.0 | 0.0 | 0.00 | 0.00 | 0.00 | 47 | 1012.8 |
| 20260905000823 | 95 | 186 | 0.0 | 0.0 | 0.00 | 0.00 | 0.00 | 47 | 1012.8 |
| 20260905000318 | 96 | 185 | 0.0 | 0.0 | 0.00 | 0.00 | 0.00 | 44 | 1012.8 |
| 20260904235812 | 96 | 186 | 0.0 | 0.0 | 0.00 | 0.00 | 0.00 | 43 | 1012.8 |
| 20260904235327 | 97 | 186 | 0.0 | 2.0 | 0.00 | 0.00 | 0.00 | 42 | 1012.8 |
| 20260904234841 | 97 | 103 | 1.0 | 2.0 | 0.00 | 0.00 | 0.00 | 42 | 1012.8 |
| 20260904234313 | 97 | 169 | 1.0 | 3.0 | 0.00 | 0.00 | 0.00 | 41 | 1012.8 |
| 20260904233847 | 97 | 171 | 0.0 | 3.0 | 0.00 | 0.00 | 0.00 | 41 | 1012.7 |
| 20260904233341 | 98 | 179 | 0.0 | 5.0 | 0.00 | 0.00 | 0.00 | 41 | 1012.7 |
| 20260904232835 | 98 | 168 | 1.0 | 5.0 | 0.00 | 0.00 | 0.00 | 40 | 1012.7 |
| 20260904232313 | 98 | 162 | 0.0 | 3.0 | 0.00 | 0.00 | 0.00 | 39 | 1012.7 |
| 20260904231847 | 99 | 203 | 0.0 | 3.0 | 0.00 | 0.00 | 0.00 | 39 | 1012.8 |
| 20260904231320 | 99 | 214 | 0.0 | 3.0 | 0.00 | 0.00 | 0.00 | 39 | 1012.7 |
| 20260904230835 | 99 | 209 | 1.0 | 3.0 | 0.00 | 0.00 | 0.00 | 38 | 1012.8 |
| 20260904230309 | 99 | 208 | 1.0 | 4.0 | 0.00 | 0.00 | 0.00 | 38 | 1012.8 |
| 20260904225823 | 99 | 214 | 0.0 | 6.0 | 0.00 | 0.00 | 0.00 | 39 | 1012.8 |
| 20260904225317 | 99 | 219 | 3.0 | 5.0 | 0.00 | 0.00 | 0.00 | 38 | 1012.8 |
| 20260904224832 | 99 | 236 | 0.0 | 5.0 | 0.00 | 0.00 | 0.00 | 39 | 1012.8 |
| 20260904224325 | 99 | 223 | 2.0 | 5.0 | 0.00 | 0.00 | 0.00 | 38 | 1012.8 |
| 20260904223820 | 99 | 207 | 1.0 | 5.0 | 0.00 | 0.00 | 0.00 | 38 | 1012.9 |
| 20260904223318 | 99 | 229 | 1.0 | 3.0 | 0.00 | 0.00 | 0.00 | 38 | 1012.8 |
| 20260904222813 | 99 | 212 | 1.0 | 4.0 | 0.00 | 0.00 | 0.00 | 37 | 1012.9 |
| 20260904222327 | 100 | 178 | 2.0 | 4.0 | 0.00 | 0.00 | 0.00 | 36 | 1012.9 |
| 20260904221842 | 100 | 295 | 0.0 | 4.0 | 0.00 | 0.00 | 0.00 | 37 | 1013.0 |
| 20260904221316 | 101 | 222 | 1.0 | 4.0 | 0.00 | 0.00 | 0.00 | 36 | 1013.0 |
| 20260904220812 | 101 | 262 | 1.0 | 7.0 | 0.00 | 0.00 | 0.00 | 35 | 1013.0 |
| 20260904220327 | 102 | 208 | 2.0 | 7.0 | 0.00 | 0.00 | 0.00 | 35 | 1013.0 |
| 20260904215821 | 102 | 167 | 2.0 | 7.0 | 0.00 | 0.00 | 0.00 | 35 | 1012.9 |
| 20260904215319 | 103 | 191 | 1.0 | 6.0 | 0.00 | 0.00 | 0.00 | 35 | 1013.0 |
| 20260904214813 | 102 | 313 | 1.0 | 4.0 | 0.00 | 0.00 | 0.00 | 36 | 1013.1 |
| 20260904214308 | 102 | 196 | 0.0 | 6.0 | 0.00 | 0.00 | 0.00 | 36 | 1013.1 |
| 20260904213823 | 103 | 219 | 1.0 | 6.0 | 0.00 | 0.00 | 0.00 | 34 | 1013.1 |
| 20260904213337 | 103 | 179 | 2.0 | 5.0 | 0.00 | 0.00 | 0.00 | 36 | 1013.1 |
| 20260904212812 | 103 | 200 | 1.0 | 5.0 | 0.00 | 0.00 | 0.00 | 35 | 1013.1 |
| 20260904212327 | 102 | 163 | 1.0 | 5.0 | 0.00 | 0.00 | 0.00 | 36 | 1013.2 |
| 20260904211821 | 102 | 186 | 1.0 | 6.0 | 0.00 | 0.00 | 0.00 | 35 | 1013.2 |
| 20260904211319 | 102 | 228 | 2.0 | 6.0 | 0.00 | 0.00 | 0.00 | 36 | 1013.3 |
| 20260904210834 | 103 | 112 | 0.0 | 7.0 | 0.00 | 0.00 | 0.00 | 36 | 1013.4 |
| 20260904210308 | 102 | 162 | 3.0 | 11.0 | 0.00 | 0.00 | 0.00 | 36 | 1013.6 |
| 20260904205823 | 101 | 158 | 1.0 | 11.0 | 0.00 | 0.00 | 0.00 | 39 | 1013.5 |
| 20260904205318 | 101 | 142 | 2.0 | 7.0 | 0.00 | 0.00 | 0.00 | 38 | 1013.5 |
| 20260904204811 | 101 | 43 | 3.0 | 6.0 | 0.00 | 0.00 | 0.00 | 38 | 1013.7 |
| 20260904204326 | 101 | 141 | 1.0 | 5.0 | 0.00 | 0.00 | 0.00 | 40 | 1013.8 |
| 20260904203821 | 101 | 207 | 1.0 | 7.0 | 0.00 | 0.00 | 0.00 | 38 | 1013.8 |
| 20260904203336 | 102 | 151 | 2.0 | 8.0 | 0.00 | 0.00 | 0.00 | 37 | 1013.9 |
| 20260904202814 | 103 | 61 | 1.0 | 8.0 | 0.00 | 0.00 | 0.00 | 38 | 1013.9 |
| 20260904202309 | 102 | 167 | 2.0 | 8.0 | 0.00 | 0.00 | 0.00 | 38 | 1013.9 |
| 20260904201824 | 101 | 34 | 0.0 | 6.0 | 0.00 | 0.00 | 0.00 | 38 | 1014.0 |
| 20260904201318 | 102 | 215 | 2.0 | 6.0 | 0.00 | 0.00 | 0.00 | 38 | 1014.0 |
| 20260904200813 | 102 | 120 | 2.0 | 5.0 | 0.00 | 0.00 | 0.00 | 38 | 1014.0 |
| 20260904195823 | 101 | 226 | 1.0 | 7.0 | 0.00 | 0.00 | 0.00 | 39 | 1014.2 |
| 20260904195322 | 102 | 20 | 2.0 | 7.0 | 0.00 | 0.00 | 0.00 | 38 | 1014.2 |
| 20260904194837 | 101 | 187 | 2.0 | 6.0 | 0.00 | 0.00 | 0.00 | 38 | 1014.3 |
| 20260904194311 | 100 | 219 | 0.0 | 7.0 | 0.00 | 0.00 | 0.00 | 41 | 1014.3 |
| 20260904193846 | 100 | 238 | 3.0 | 7.0 | 0.00 | 0.00 | 0.00 | 39 | 1014.4 |
| 20260904193318 | 100 | 212 | 2.0 | 5.0 | 0.00 | 0.00 | 0.00 | 40 | 1014.4 |
| 20260904192813 | 101 | 213 | 3.0 | 6.0 | 0.00 | 0.00 | 0.00 | 39 | 1014.5 |
| 20260904192308 | 102 | 241 | 1.0 | 6.0 | 0.00 | 0.00 | 0.00 | 39 | 1014.6 |
| 20260904191823 | 102 | 232 | 2.0 | 5.0 | 0.00 | 0.00 | 0.00 | 41 | 1014.7 |
| 20260904191318 | 101 | 197 | 0.0 | 3.0 | 0.00 | 0.00 | 0.00 | 39 | 1014.7 |
| 20260904190817 | 101 | 174 | 2.0 | 7.0 | 0.00 | 0.00 | 0.00 | 39 | 1014.8 |
| 20260904190310 | 100 | 164 | 3.0 | 7.0 | 0.00 | 0.00 | 0.00 | 40 | 1015.0 |
| 20260904185825 | 100 | 266 | 0.0 | 6.0 | 0.00 | 0.00 | 0.00 | 40 | 1015.0 |
| 20260904185320 | 99 | 174 | 3.0 | 8.0 | 0.00 | 0.00 | 0.00 | 44 | 1014.9 |
| 20260904184814 | 99 | 215 | 1.0 | 8.0 | 0.00 | 0.00 | 0.00 | 45 | 1015.0 |
| 20260904184308 | 99 | 229 | 5.0 | 8.0 | 0.00 | 0.00 | 0.00 | 42 | 1015.1 |
| 20260904183823 | 99 | 229 | 2.0 | 5.0 | 0.00 | 0.00 | 0.00 | 42 | 1015.1 |
| 20260904183338 | 100 | 65 | 1.0 | 5.0 | 0.00 | 0.00 | 0.00 | 42 | 1015.2 |
| 20260904182836 | 99 | 65 | 1.0 | 7.0 | 0.00 | 0.00 | 0.00 | 42 | 1015.2 |
| 20260904182309 | 98 | 68 | 2.0 | 7.0 | 0.00 | 0.00 | 0.00 | 43 | 1015.3 |
| 20260904181824 | 98 | 215 | 2.0 | 8.0 | 0.00 | 0.00 | 0.00 | 42 | 1015.3 |
| 20260904181320 | 99 | 159 | 3.0 | 8.0 | 0.00 | 0.00 | 0.00 | 43 | 1015.4 |
| 20260904180813 | 98 | 113 | 1.0 | 6.0 | 0.00 | 0.00 | 0.00 | 45 | 1015.4 |
| 20260904180307 | 98 | 204 | 3.0 | 7.0 | 0.00 | 0.00 | 0.00 | 44 | 1015.5 |
| 20260904175822 | 98 | 226 | 2.0 | 7.0 | 0.00 | 0.00 | 0.00 | 46 | 1015.6 |
| 20260904175318 | 98 | 120 | 3.0 | 8.0 | 0.00 | 0.00 | 0.00 | 44 | 1015.8 |
| 20260904174817 | 98 | 231 | 3.0 | 8.0 | 0.00 | 0.00 | 0.00 | 45 | 1015.8 |
| 20260904174312 | 97 | 231 | 2.0 | 7.0 | 0.00 | 0.00 | 0.00 | 46 | 1015.9 |
| 20260904173826 | 98 | 226 | 4.0 | 6.0 | 0.00 | 0.00 | 0.00 | 43 | 1015.9 |
| 20260904173321 | 98 | 221 | 2.0 | 7.0 | 0.00 | 0.00 | 0.00 | 46 | 1015.9 |
| 20260904172835 | 98 | 218 | 3.0 | 8.0 | 0.00 | 0.00 | 0.00 | 46 | 1016.0 |
| 20260904172308 | 97 | 184 | 1.0 | 8.0 | 0.00 | 0.00 | 0.00 | 48 | 1016.1 |
| 20260904171823 | 97 | 217 | 3.0 | 7.0 | 0.00 | 0.00 | 0.00 | 46 | 1016.1 |
| 20260904171318 | 97 | 158 | 2.0 | 7.0 | 0.00 | 0.00 | 0.00 | 49 | 1016.2 |
| 20260904170817 | 96 | 199 | 3.0 | 6.0 | 0.00 | 0.00 | 0.00 | 48 | 1016.2 |
| 20260904170331 | 96 | 103 | 1.0 | 5.0 | 0.00 | 0.00 | 0.00 | 49 | 1016.3 |
| 20260904165843 | 96 | 216 | 3.0 | 5.0 | 0.00 | 0.00 | 0.00 | 49 | 1016.3 |
| 20260904165317 | 96 | 142 | 1.0 | 5.0 | 0.00 | 0.00 | 0.00 | 51 | 1016.4 |
| 20260904164812 | 96 | 250 | 1.0 | 6.0 | 0.00 | 0.00 | 0.00 | 49 | 1016.4 |
| 20260904164327 | 96 | 224 | 1.0 | 6.0 | 0.00 | 0.00 | 0.00 | 51 | 1016.4 |
| 20260904163821 | 96 | 192 | 0.0 | 4.0 | 0.00 | 0.00 | 0.00 | 50 | 1016.5 |
| 20260904163316 | 95 | 188 | 1.0 | 5.0 | 0.00 | 0.00 | 0.00 | 52 | 1016.5 |
| 20260904162811 | 94 | 212 | 0.0 | 5.0 | 0.00 | 0.00 | 0.00 | 53 | 1016.5 |
| 20260904162310 | 94 | 220 | 2.0 | 5.0 | 0.00 | 0.00 | 0.00 | 53 | 1016.5 |
| 20260904161845 | 93 | 158 | 1.0 | 5.0 | 0.00 | 0.00 | 0.00 | 55 | 1016.5 |
| 20260904161319 | 93 | 224 | 3.0 | 7.0 | 0.00 | 0.00 | 0.00 | 53 | 1016.5 |
| 20260904160814 | 94 | 162 | 2.0 | 5.0 | 0.00 | 0.00 | 0.00 | 54 | 1016.5 |
| 20260904160308 | 94 | 193 | 2.0 | 6.0 | 0.00 | 0.00 | 0.00 | 56 | 1016.6 |
| 20260904155842 | 93 | 159 | 2.0 | 6.0 | 0.00 | 0.00 | 0.00 | 55 | 1016.7 |
| 20260904155316 | 92 | 210 | 1.0 | 4.0 | 0.00 | 0.00 | 0.00 | 57 | 1016.7 |
| 20260904154831 | 92 | 221 | 0.0 | 6.0 | 0.00 | 0.00 | 0.00 | 59 | 1016.7 |
| 20260904154323 | 92 | 208 | 3.0 | 6.0 | 0.00 | 0.00 | 0.00 | 57 | 1016.7 |
| 20260904153818 | 92 | 207 | 1.0 | 7.0 | 0.00 | 0.00 | 0.00 | 57 | 1016.7 |
| 20260904153317 | 92 | 169 | 1.0 | 7.0 | 0.00 | 0.00 | 0.00 | 58 | 1016.8 |
| 20260904152833 | 92 | 279 | 0.0 | 4.0 | 0.00 | 0.00 | 0.00 | 58 | 1016.7 |
| 20260904152326 | 91 | 224 | 1.0 | 5.0 | 0.00 | 0.00 | 0.00 | 60 | 1016.7 |
| 20260904151840 | 90 | 209 | 3.0 | 5.0 | 0.00 | 0.00 | 0.00 | 59 | 1016.8 |
| 20260904151313 | 90 | 206 | 2.0 | 4.0 | 0.00 | 0.00 | 0.00 | 60 | 1016.7 |
| 20260904150848 | 90 | 165 | 1.0 | 4.0 | 0.00 | 0.00 | 0.00 | 61 | 1016.8 |
| 20260904150320 | 90 | 230 | 1.0 | 6.0 | 0.00 | 0.00 | 0.00 | 60 | 1016.7 |
| 20260904145815 | 90 | 221 | 2.0 | 6.0 | 0.00 | 0.00 | 0.00 | 59 | 1016.7 |
| 20260904145309 | 90 | 153 | 1.0 | 4.0 | 0.00 | 0.00 | 0.00 | 61 | 1016.7 |
| 20260904144826 | 90 | 221 | 1.0 | 4.0 | 0.00 | 0.00 | 0.00 | 60 | 1016.7 |
| 20260904144319 | 90 | 208 | 1.0 | 4.0 | 0.00 | 0.00 | 0.00 | 60 | 1016.7 |
| 20260904143813 | 90 | 263 | 0.0 | 3.0 | 0.00 | 0.00 | 0.00 | 61 | 1016.7 |
| 20260904143325 | 89 | 193 | 0.0 | 4.0 | 0.00 | 0.00 | 0.00 | 62 | 1016.7 |
| 20260904142820 | 88 | 219 | 2.0 | 4.0 | 0.00 | 0.00 | 0.00 | 63 | 1016.7 |
| 20260904142314 | 88 | 208 | 2.0 | 4.0 | 0.00 | 0.00 | 0.00 | 63 | 1016.7 |
| 20260904141810 | 88 | 228 | 0.0 | 3.0 | 0.00 | 0.00 | 0.00 | 63 | 1016.7 |
| 20260904141323 | 87 | 214 | 1.0 | 5.0 | 0.00 | 0.00 | 0.00 | 63 | 1016.7 |
| 20260904140818 | 88 | 216 | 2.0 | 5.0 | 0.00 | 0.00 | 0.00 | 63 | 1016.7 |
| 20260904140312 | 88 | 164 | 2.0 | 4.0 | 0.00 | 0.00 | 0.00 | 62 | 1016.6 |
| 20260904135830 | 88 | 208 | 0.0 | 4.0 | 0.00 | 0.00 | 0.00 | 64 | 1016.6 |
| 20260904135324 | 87 | 223 | 1.0 | 4.0 | 0.00 | 0.00 | 0.00 | 63 | 1016.6 |
| 20260904134819 | 88 | 188 | 2.0 | 5.0 | 0.00 | 0.00 | 0.00 | 62 | 1016.6 |
| 20260904134314 | 89 | 208 | 1.0 | 5.0 | 0.00 | 0.00 | 0.00 | 61 | 1016.6 |
| 20260904133809 | 89 | 147 | 0.0 | 0.0 | 0.00 | 0.00 | 0.00 | 62 | 1016.6 |
| 20260904133323 | 88 | 152 | 0.0 | 0.0 | 0.00 | 0.00 | 0.00 | 64 | 1016.7 |
| 20260904132857 | 87 | 151 | 0.0 | 0.0 | 0.00 | 0.00 | 0.00 | 66 | 1016.6 |
| 20260904132326 | 86 | 224 | 0.0 | 0.0 | 0.00 | 0.00 | 0.00 | 68 | 1016.6 |
| 20260904131821 | 85 | 219 | 0.0 | 0.0 | 0.00 | 0.00 | 0.00 | 68 | 1016.5 |
| 20260904131336 | 85 | 226 | 0.0 | 1.0 | 0.00 | 0.00 | 0.00 | 69 | 1016.4 |
| 20260904130813 | 84 | 197 | 0.0 | 1.0 | 0.00 | 0.00 | 0.00 | 69 | 1016.3 |
| 20260904130309 | 83 | 233 | 0.0 | 0.0 | 0.00 | 0.00 | 0.00 | 71 | 1016.4 |
| 20260904125844 | 82 | 226 | 0.0 | 0.0 | 0.00 | 0.00 | 0.00 | 72 | 1016.4 |
| 20260904125318 | 81 | 226 | 0.0 | 0.0 | 0.00 | 0.00 | 0.00 | 75 | 1016.4 |
| 20260904124813 | 78 | 226 | 0.0 | 0.0 | 0.00 | 0.00 | 0.00 | 80 | 1016.4 |
| 20260904124308 | 75 | 226 | 0.0 | 0.0 | 0.00 | 0.00 | 0.00 | 86 | 1016.4 |
| 20260904123822 | 73 | 226 | 0.0 | 0.0 | 0.00 | 0.00 | 0.00 | 88 | 1016.3 |
| 20260904123316 | 72 | 226 | 0.0 | 0.0 | 0.00 | 0.00 | 0.00 | 88 | 1016.3 |
| 20260904122831 | 72 | 226 | 0.0 | 0.0 | 0.00 | 0.00 | 0.00 | 88 | 1016.3 |
| 20260904122309 | 72 | 226 | 0.0 | 0.0 | 0.00 | 0.00 | 0.00 | 88 | 1016.3 |
| 20260904121824 | 72 | 226 | 0.0 | 0.0 | 0.00 | 0.00 | 0.00 | 88 | 1016.2 |
| 20260904121318 | 72 | 226 | 0.0 | 0.0 | 0.00 | 0.00 | 0.00 | 88 | 1016.1 |
| 20260904120810 | 72 | 226 | 0.0 | 0.0 | 0.00 | 0.00 | 0.00 | 88 | 1016.1 |
| 20260904120323 | 72 | 226 | 0.0 | 0.0 | 0.00 | 0.00 | 0.00 | 87 | 1016.1 |
| 20260904115818 | 72 | 226 | 0.0 | 0.0 | 0.00 | 0.00 | 0.00 | 87 | 1016.0 |
| 20260904115310 | 72 | 226 | 0.0 | 0.0 | 0.00 | 0.00 | 0.00 | 87 | 1015.9 |
| 20260904114824 | 72 | 226 | 0.0 | 0.0 | 0.00 | 0.00 | 0.00 | 87 | 1016.0 |
| 20260904114317 | 72 | 226 | 0.0 | 0.0 | 0.00 | 0.00 | 0.00 | 86 | 1015.9 |
| 20260904113810 | 72 | 226 | 0.0 | 0.0 | 0.00 | 0.00 | 0.00 | 86 | 1016.0 |
| 20260904113308 | 73 | 226 | 0.0 | 0.0 | 0.00 | 0.00 | 0.00 | 86 | 1015.9 |
| 20260904112820 | 73 | 226 | 0.0 | 0.0 | 0.00 | 0.00 | 0.00 | 85 | 1015.9 |
| 20260904112313 | 73 | 226 | 0.0 | 0.0 | 0.00 | 0.00 | 0.00 | 85 | 1015.8 |
| 20260904111808 | 73 | 226 | 0.0 | 0.0 | 0.00 | 0.00 | 0.00 | 84 | 1015.7 |
| 20260904111343 | 74 | 226 | 0.0 | 0.0 | 0.00 | 0.00 | 0.00 | 84 | 1015.7 |
| 20260904110817 | 74 | 226 | 0.0 | 0.0 | 0.00 | 0.00 | 0.00 | 84 | 1015.6 |
| 20260904110312 | 74 | 226 | 0.0 | 0.0 | 0.00 | 0.00 | 0.00 | 84 | 1015.6 |
| 20260904105825 | 74 | 226 | 0.0 | 0.0 | 0.00 | 0.00 | 0.00 | 84 | 1015.6 |
| 20260904105318 | 74 | 226 | 0.0 | 0.0 | 0.00 | 0.00 | 0.00 | 84 | 1015.5 |
| 20260904104832 | 73 | 226 | 0.0 | 0.0 | 0.00 | 0.00 | 0.00 | 84 | 1015.5 |
| 20260904104324 | 74 | 226 | 0.0 | 0.0 | 0.00 | 0.00 | 0.00 | 83 | 1015.5 |
| 20260904103821 | 74 | 226 | 0.0 | 0.0 | 0.00 | 0.00 | 0.00 | 83 | 1015.4 |
| 20260904103316 | 74 | 225 | 0.0 | 0.0 | 0.00 | 0.00 | 0.00 | 82 | 1015.5 |
| 20260904102810 | 74 | 226 | 0.0 | 0.0 | 0.00 | 0.00 | 0.00 | 82 | 1015.6 |
| 20260904102325 | 75 | 226 | 0.0 | 0.0 | 0.00 | 0.00 | 0.00 | 81 | 1015.5 |
| 20260904101818 | 75 | 226 | 0.0 | 0.0 | 0.00 | 0.00 | 0.00 | 81 | 1015.4 |
| 20260904101312 | 75 | 226 | 0.0 | 0.0 | 0.00 | 0.00 | 0.00 | 80 | 1015.4 |
| 20260904100826 | 75 | 226 | 0.0 | 0.0 | 0.00 | 0.00 | 0.00 | 80 | 1015.3 |
| 20260904100341 | 75 | 226 | 0.0 | 0.0 | 0.00 | 0.00 | 0.00 | 80 | 1015.2 |
| 20260904095815 | 76 | 225 | 0.0 | 0.0 | 0.00 | 0.00 | 0.00 | 79 | 1015.3 |
| 20260904095329 | 76 | 226 | 0.0 | 0.0 | 0.00 | 0.00 | 0.00 | 79 | 1015.2 |
| 20260904094826 | 76 | 226 | 0.0 | 0.0 | 0.00 | 0.00 | 0.00 | 78 | 1015.1 |
| 20260904094321 | 76 | 166 | 0.0 | 0.0 | 0.00 | 0.00 | 0.00 | 78 | 1015.1 |
| 20260904093816 | 76 | 166 | 0.0 | 0.0 | 0.00 | 0.00 | 0.00 | 78 | 1015.1 |
| 20260904093311 | 77 | 161 | 0.0 | 0.0 | 0.00 | 0.00 | 0.00 | 78 | 1015.0 |
| 20260904092826 | 77 | 187 | 0.0 | 0.0 | 0.00 | 0.00 | 0.00 | 77 | 1015.0 |
| 20260904092321 | 77 | 186 | 0.0 | 0.0 | 0.00 | 0.00 | 0.00 | 77 | 1014.8 |
| 20260904091835 | 77 | 186 | 0.0 | 3.0 | 0.00 | 0.00 | 0.00 | 76 | 1014.8 |
| 20260904091309 | 77 | 203 | 1.0 | 3.0 | 0.00 | 0.00 | 0.00 | 76 | 1014.8 |
| 20260904090821 | 78 | 219 | 0.0 | 0.0 | 0.00 | 0.00 | 0.00 | 76 | 1014.8 |
| 20260904090321 | 78 | 231 | 0.0 | 0.0 | 0.00 | 0.00 | 0.00 | 76 | 1014.7 |
| 20260904085815 | 78 | 181 | 0.0 | 4.0 | 0.00 | 0.00 | 0.00 | 75 | 1014.5 |
| 20260904085309 | 78 | 203 | 0.0 | 3.0 | 0.00 | 0.00 | 0.00 | 75 | 1014.5 |
| 20260904084824 | 78 | 180 | 0.0 | 3.0 | 0.00 | 0.00 | 0.00 | 75 | 1014.5 |
| 20260904084318 | 78 | 205 | 0.0 | 3.0 | 0.00 | 0.00 | 0.00 | 75 | 1014.5 |
| 20260904083811 | 78 | 181 | 1.0 | 3.0 | 0.00 | 0.00 | 0.00 | 74 | 1014.5 |
| 20260904083326 | 79 | 159 | 0.0 | 4.0 | 0.00 | 0.00 | 0.00 | 74 | 1014.4 |
| 20260904082821 | 79 | 136 | 1.0 | 4.0 | 0.00 | 0.00 | 0.00 | 74 | 1014.4 |
| 20260904082319 | 79 | 195 | 1.0 | 5.0 | 0.00 | 0.00 | 0.00 | 74 | 1014.5 |
| 20260904081814 | 79 | 158 | 1.0 | 5.0 | 0.00 | 0.00 | 0.00 | 73 | 1014.5 |
| 20260904081329 | 79 | 172 | 1.0 | 3.0 | 0.00 | 0.00 | 0.00 | 73 | 1014.4 |
| 20260904080823 | 79 | 157 | 1.0 | 3.0 | 0.00 | 0.00 | 0.00 | 73 | 1014.3 |
| 20260904080315 | 79 | 165 | 0.0 | 3.0 | 0.00 | 0.00 | 0.00 | 73 | 1014.3 |
| 20260904075810 | 80 | 162 | 1.0 | 3.0 | 0.00 | 0.00 | 0.00 | 72 | 1014.4 |
| 20260904075324 | 80 | 204 | 1.0 | 4.0 | 0.00 | 0.00 | 0.00 | 72 | 1014.4 |
| 20260904074818 | 80 | 154 | 1.0 | 4.0 | 0.00 | 0.00 | 0.00 | 72 | 1014.4 |
| 20260904074315 | 80 | 153 | 2.0 | 4.0 | 0.00 | 0.00 | 0.00 | 72 | 1014.5 |
| 20260904073829 | 80 | 191 | 0.0 | 4.0 | 0.00 | 0.00 | 0.00 | 72 | 1014.5 |
| 20260904073322 | 80 | 201 | 1.0 | 4.0 | 0.00 | 0.00 | 0.00 | 71 | 1014.5 |
| 20260904072815 | 80 | 142 | 0.0 | 3.0 | 0.00 | 0.00 | 0.00 | 71 | 1014.3 |
| 20260904072309 | 80 | 188 | 1.0 | 3.0 | 0.00 | 0.00 | 0.00 | 71 | 1014.3 |
| 20260904071823 | 81 | 153 | 0.0 | 4.0 | 0.00 | 0.00 | 0.00 | 70 | 1014.3 |
| 20260904071336 | 81 | 177 | 1.0 | 4.0 | 0.00 | 0.00 | 0.00 | 71 | 1014.2 |
| 20260904070810 | 81 | 173 | 1.0 | 4.0 | 0.00 | 0.00 | 0.00 | 71 | 1014.2 |
| 20260904070323 | 81 | 185 | 1.0 | 4.0 | 0.00 | 0.00 | 0.00 | 71 | 1014.2 |
| 20260904065821 | 80 | 190 | 2.0 | 5.0 | 0.00 | 0.00 | 0.00 | 71 | 1014.3 |
| 20260904065315 | 80 | 152 | 1.0 | 4.0 | 0.00 | 0.00 | 0.00 | 71 | 1014.3 |
| 20260904064810 | 80 | 70 | 2.0 | 4.0 | 0.00 | 0.00 | 0.00 | 71 | 1014.3 |
| 20260904064325 | 80 | 168 | 1.0 | 4.0 | 0.00 | 0.00 | 0.00 | 71 | 1014.3 |
| 20260904063819 | 80 | 169 | 0.0 | 4.0 | 0.00 | 0.00 | 0.00 | 71 | 1014.3 |
| 20260904063312 | 80 | 181 | 1.0 | 4.0 | 0.00 | 0.00 | 0.00 | 71 | 1014.3 |
| 20260904062807 | 80 | 194 | 1.0 | 4.0 | 0.00 | 0.00 | 0.00 | 71 | 1014.3 |
| 20260904062322 | 81 | 157 | 0.0 | 4.0 | 0.00 | 0.00 | 0.00 | 71 | 1014.3 |
| 20260904061820 | 81 | 150 | 0.0 | 4.0 | 0.00 | 0.00 | 0.00 | 70 | 1014.4 |
| 20260904061315 | 81 | 111 | 0.0 | 3.0 | 0.00 | 0.00 | 0.00 | 70 | 1014.3 |
| 20260904060810 | 81 | 164 | 1.0 | 6.0 | 0.00 | 0.00 | 0.00 | 70 | 1014.4 |
| 20260904060344 | 81 | 158 | 1.0 | 6.0 | 0.00 | 0.00 | 0.00 | 69 | 1014.3 |
| 20260904055838 | 82 | 176 | 1.0 | 3.0 | 0.00 | 0.00 | 0.00 | 69 | 1014.4 |
| 20260904055311 | 82 | 177 | 0.0 | 4.0 | 0.00 | 0.00 | 0.00 | 68 | 1014.3 |
| 20260904054807 | 82 | 158 | 1.0 | 4.0 | 0.00 | 0.00 | 0.00 | 68 | 1014.3 |
| 20260904054322 | 82 | 146 | 1.0 | 5.0 | 0.00 | 0.00 | 0.00 | 68 | 1014.3 |
| 20260904053821 | 82 | 165 | 1.0 | 4.0 | 0.00 | 0.00 | 0.00 | 68 | 1014.2 |
| 20260904053335 | 82 | 169 | 0.0 | 3.0 | 0.00 | 0.00 | 0.00 | 68 | 1014.2 |
| 20260904052809 | 82 | 165 | 1.0 | 4.0 | 0.00 | 0.00 | 0.00 | 68 | 1014.2 |
| 20260904052324 | 82 | 172 | 1.0 | 4.0 | 0.00 | 0.00 | 0.00 | 67 | 1014.2 |
| 20260904051839 | 82 | 191 | 0.0 | 2.0 | 0.00 | 0.00 | 0.00 | 67 | 1014.2 |
| 20260904051313 | 83 | 161 | 1.0 | 2.0 | 0.00 | 0.00 | 0.00 | 67 | 1014.1 |
| 20260904050808 | 83 | 158 | 0.0 | 4.0 | 0.00 | 0.00 | 0.00 | 66 | 1014.1 |
| 20260904050343 | 83 | 120 | 0.0 | 3.0 | 0.00 | 0.00 | 0.00 | 66 | 1014.1 |
| 20260904045836 | 83 | 111 | 0.0 | 3.0 | 0.00 | 0.00 | 0.00 | 66 | 1014.1 |
| 20260904045309 | 83 | 174 | 1.0 | 5.0 | 0.00 | 0.00 | 0.00 | 66 | 1014.1 |
| 20260904044808 | 83 | 189 | 0.0 | 7.0 | 0.00 | 0.00 | 0.00 | 66 | 1014.0 |
| 20260904044323 | 83 | 98 | 2.0 | 7.0 | 0.00 | 0.00 | 0.00 | 65 | 1014.0 |
| 20260904043820 | 84 | 151 | 1.0 | 3.0 | 0.00 | 0.00 | 0.00 | 65 | 1014.1 |
| 20260904043312 | 84 | 175 | 1.0 | 4.0 | 0.00 | 0.00 | 0.00 | 65 | 1014.0 |
| 20260904042847 | 84 | 158 | 1.0 | 4.0 | 0.00 | 0.00 | 0.00 | 65 | 1014.0 |
| 20260904042319 | 84 | 146 | 1.0 | 4.0 | 0.00 | 0.00 | 0.00 | 65 | 1013.9 |
| 20260904041813 | 84 | 143 | 2.0 | 4.0 | 0.00 | 0.00 | 0.00 | 64 | 1014.0 |
| 20260904041308 | 84 | 164 | 1.0 | 5.0 | 0.00 | 0.00 | 0.00 | 64 | 1014.0 |
| 20260904040826 | 84 | 155 | 2.0 | 5.0 | 0.00 | 0.00 | 0.00 | 64 | 1014.1 |
| 20260904040320 | 84 | 164 | 0.0 | 3.0 | 0.00 | 0.00 | 0.00 | 64 | 1014.1 |